This is the latest recevied weather packets stored in our database for station/object HARMALA. If no packets are shown the sender has not sent any weather packets the latest 10 day(s).
| Time | Temp. | Humidity | Pressure | Rain* | Wind** | Luminosity | Snow |
|---|---|---|---|---|---|---|---|
| 1777655222 | 18.89° C | 28% | 1014.5 hPa | 0 mm | - | - | - |
| 1777654021 | 18.89° C | 29% | 1014.6 hPa | 0 mm | - | - | - |
| 1777652821 | 19.44° C | 28% | 1014.8 hPa | 0 mm | - | - | - |
| 1777651621 | 20° C | 27% | 1015 hPa | 0 mm | - | - | - |
| 1777650421 | 20° C | 27% | 1015 hPa | 0 mm | - | - | - |
| 1777649220 | 20° C | 27% | 1015.3 hPa | 0 mm | - | - | - |
| 1777648020 | 20° C | 28% | 1015.6 hPa | 0 mm | - | - | - |
| 1777646820 | 19.44° C | 28% | 1015.8 hPa | 0 mm | - | - | - |
| 1777645621 | 19.44° C | 29% | 1016 hPa | 0 mm | - | - | - |
| 1777644420 | 19.44° C | 29% | 1016.3 hPa | 0 mm | - | - | - |
| 1777643220 | 20° C | 29% | 1016.4 hPa | 0 mm | - | - | - |
| 1777642021 | 19.44° C | 30% | 1016.7 hPa | 0 mm | - | - | - |
| 1777640820 | 19.44° C | 31% | 1017 hPa | 0 mm | - | - | - |
| 1777639620 | 19.44° C | 29% | 1017.2 hPa | 0 mm | - | - | - |
| 1777638420 | 18.89° C | 29% | 1017.4 hPa | 0 mm | - | - | - |
| 1777637220 | 18.89° C | 30% | 1017.7 hPa | 0 mm | - | - | - |
| 1777636019 | 18.89° C | 32% | 1017.9 hPa | 0 mm | - | - | - |
| 1777634820 | 18.33° C | 35% | 1018.1 hPa | 0 mm | - | - | - |
| 1777633620 | 18.33° C | 36% | 1018.3 hPa | 0 mm | - | - | - |
| 1777632419 | 17.78° C | 39% | 1018.6 hPa | 0 mm | - | - | - |
| 1777631220 | 16.67° C | 39% | 1018.7 hPa | 0 mm | - | - | - |
| 1777630019 | 16.67° C | 42% | 1018.9 hPa | 0 mm | - | - | - |
| 1777628820 | 16.11° C | 42% | 1019.1 hPa | 0 mm | - | - | - |
| 1777627619 | 15.56° C | 44% | 1019.3 hPa | 0 mm | - | - | - |
| 1777626419 | 15° C | 46% | 1019.6 hPa | 0 mm | - | - | - |
* Rain latest hour (hover to see other rain measurements)
** Current wind speed in m/s (hover to see current wind gust speed)